Retour au catalogue

YAOGAN-30 AB

ActifMilitaireVLEO
NORAD 48861·PAYLOAD·🇨🇳 China

Lancé Jun 18, 2021 depuis Xichang Satellite Launch Center

Loading…

Prochains Passages (prochaines 24 heures)

TLE

FraisSource: Space-Track

Époque: Sep 14, 2026, 14:23 UTC

1 48861U 21055B   26257.59960059  .00001824  00000-0  13475-3 0  9993
2 48861  34.9965 326.7627 0003452 153.4826 206.6059 15.03058543286638

Suivez YAOGAN-30 AB en temps réel avec AllMySat

Download on the App Store